Content
SEND FEEDBACK

Daily
Averages
Monthly
Summary
United States of America

FLORIEN, LOUISIANA


Home > North America > United States > Louisiana
Elevation: 360 feet     Latitude: 31 23N     Longitude: 093 24W

WEATHER
 
SELECT A DAY
Number of Records: 102,873;   Date Range: 3/2/05 - 7/29/14
 
SHARE

PRINT THIS DATA

[ ← Previous Day ]
WEATHER ALMANAC - FEBRUARY 5, 2013
[ Next Day → ]
[ °C ]   °F
Weather ElementAverageHighLow
Temperature58 °F68 °F (3:29 pm)51.8 °F (11:16 pm)
Dewpoint55 °F59 °F (1:56 pm)50 °F (10:56 pm)
Humidity90.3 %97 % (5:56 am)73 % (3:29 pm)
Barometer29.97 in30.03 in (9:23 pm)29.90 in (2:56 am)
Wind Speed0.5 mph5.8 mph (12:30 pm)
Weather ElementAverage
Visibility4.6 mi
Wind DirectionNNE (8.5 °)

Weather ElementTotal
Precipitation0.03 in
Heating Degree Days5.1 (Base 65)
Growing Degree Days9.9 (Base 50)
Averaged from 47 records on February 5, 2013
WEATHER CONDITIONS BREAKOUT
WIND DIRECTION BREAKOUT
WEATHER BY HOUR - FEBRUARY 5, 2013
[ °C ]   °F
Local TimeTemperatureDewpointHumidityBarometerVisibilityWind DirectionWind SpeedGust SpeedPrecipitationEventsConditions
12:43 AM55.4 °F51.8 °F88 %29.92 in10.0 miCalmMostly Cloudy
12:56 AM55.0 °F53.1 °F93 %29.91 in9.0 miSouth (170°)3.5 mphOvercast
1:31 AM55.4 °F53.6 °F94 %29.91 in9.0 miCalm0.00 inOvercast
1:42 AM55.4 °F53.6 °F94 %29.91 in7.0 miSSE (160°)3.5 mph0.00 inMostly Cloudy
1:56 AM55.0 °F53.1 °F93 %29.91 in7.0 miCalm0.00 inOvercast
2:04 AM55.4 °F53.6 °F94 %29.91 in8.0 miCalmOvercast
2:13 AM55.4 °F53.6 °F94 %29.91 in7.0 miCalmOvercast
2:56 AM55.0 °F53.1 °F93 %29.90 in4.0 miCalmOvercast
3:56 AM55.9 °F54.0 °F93 %29.90 in3.0 miCalmOvercast
4:02 AM55.4 °F53.6 °F94 %29.90 in1.8 miCalmOvercast
4:27 AM55.4 °F53.6 °F94 %29.91 in0.5 miCalmFogFog
4:56 AM55.9 °F54.0 °F93 %29.91 in0.2 miCalmFogFog
5:56 AM55.9 °F55.0 °F97 %29.93 in0.2 miCalmFogFog
6:56 AM55.9 °F55.0 °F97 %29.94 in0.2 miCalmFogFog
7:56 AM57.0 °F55.0 °F93 %29.96 in0.2 miCalmFogFog
8:33 AM57.2 °F55.4 °F94 %29.97 in1.2 miCalmOvercast
8:46 AM57.2 °F55.4 °F94 %29.97 in2.5 miCalmOvercast
8:53 AM57.2 °F55.4 °F94 %29.98 in3.0 miCalmOvercast
8:56 AM57.9 °F55.9 °F93 %29.98 in3.0 miCalmOvercast
9:56 AM57.9 °F55.9 °F93 %30.01 in4.0 miCalmOvercast
10:56 AM60.1 °F57.0 °F90 %30.02 in6.0 miCalmOvercast
11:40 AM60.8 °F57.2 °F88 %30.01 in8.0 miNorth (10°)3.5 mphOvercast
11:56 AM61.0 °F57.0 °F87 %30.01 in6.0 miCalmOvercast
12:30 PM60.8 °F57.2 °F88 %30.00 in2.5 miNNE (30°)5.8 mph0.01 inRainLight Rain
12:37 PM60.8 °F57.2 °F88 %30.00 in4.0 miVariable4.6 mph0.01 inOvercast
12:56 PM61.0 °F57.9 °F90 %30.00 in7.0 miNNE (30°)3.5 mph0.01 inOvercast
1:56 PM64.0 °F59.0 °F84 %29.97 in10.0 miCalmOvercast
2:26 PM64.4 °F57.2 °F77 %29.97 in10.0 miCalmOvercast
2:56 PM66.0 °F57.9 °F75 %29.97 in10.0 miCalmOvercast
3:29 PM68.0 °F59.0 °F73 %29.96 in10.0 miCalmMostly Cloudy
3:53 PM68.0 °F59.0 °F73 %29.96 in10.0 miCalmScattered Clouds
3:56 PM68.0 °F59.0 °F73 %29.96 in10.0 miCalmScattered Clouds
4:56 PM66.9 °F59.0 °F76 %29.96 in10.0 miCalmClear
5:56 PM62.1 °F57.9 °F86 %29.96 in9.0 miCalmPartly Cloudy
6:56 PM59.0 °F57.0 °F93 %29.98 in4.0 miCalmClear
7:56 PM57.0 °F55.0 °F93 %30.00 in3.0 miCalmClear
8:20 PM55.4 °F53.6 °F94 %30.00 in2.0 miCalmClear
8:31 PM57.2 °F55.4 °F94 %30.01 in4.0 miCalmClear
8:56 PM57.0 °F55.9 °F96 %30.01 in4.0 miCalmClear
9:15 PM57.2 °F55.4 °F94 %30.02 in1.8 miCalmClear
9:23 PM55.4 °F53.6 °F94 %30.03 in0.8 miCalmMist
9:56 PM54.0 °F52.0 °F93 %30.03 in0.8 miCalmMist
10:56 PM52.0 °F50.0 °F93 %30.03 in0.8 miCalmMist
11:16 PM51.8 °F50.0 °F94 %30.03 in0.2 miCalmFogFog
11:30 PM53.6 °F51.8 °F94 %30.03 in1.0 miCalmMist
11:35 PM51.8 °F50.0 °F94 %30.03 in0.8 miCalmMist
11:56 PM52.0 °F51.1 °F97 %30.03 in0.2 miCalmFogFog
Hourly data recorded from KAQV, located miles away from Florien, Louisiana







STORIES FROM OUR PARTNERS